Location: Kershaw
(34.5481°N, 80.5823°W)
Time: 16:03:04
(UTC+00:00)

Transit 2A - Pass Details

Date: 04 October 2022
Orbit: 598 x 959 km, 66.7° (Epoch: 06 December)

Event Time Altitude Azimuth Distance (km) Brightness Sun altitude
Rises 04:59:54 0° 253° (WSW) 2,915 - -59.7°
Reaches altitude 10° 05:03:26 10° 282° (WNW) 1,966 - -59.7°
Maximum altitude 05:05:25 13° 309° (NW) 1,771 - -59.8°
Drops below altitude 10° 05:07:24 10° 336° (NNW) 1,942 - -59.8°
Sets 05:10:52 0° 6° (N) 2,846 - -59.8°
